GEFSCGP_con_probscp_192.txt.gz
Probability
0 0 0 0 0 0 0 0 0 0 0 0 0 1 2 3 4 5 9 15 20 23 27 30 31 33 41 49 53 50 46 40 33 28 25 23 21 21 21 23 24 22 19 18
0 0 0 0 0 0 0 0 0 0 0 0 0 1 2 3 3 5 9 15 20 25 31 36 35 34 41 51 55 53 50 44 37 30 24 20 19 19 20 24 28 29 28 27
0 0 0 0 0 0 0 0 0 0 0 0 0 1 3 4 4 5 8 13 18 23 33 41 39 34 40 50 55 54 53 51 44 34 25 22 23 23 23 27 31 35 37 38
0 0 0 0 0 0 0 0 0 0 0 0 0 1 3 5 7 7 7 10 15 21 33 42 40 36 38 45 50 53 54 54 50 40 31 28 28 28 28 30 32 36 39 40
0 0 0 0 0 0 0 0 0 0 0 0 0 1 3 6 8 9 9 12 17 24 33 40 41 39 38 41 48 53 55 56 54 46 37 33 29 25 25 30 35 39 40 39
0 0 0 0 0 0 0 0 0 0 0 0 0 1 4 8 8 9 12 15 21 28 35 40 43 44 42 42 47 53 57 58 55 47 41 37 32 25 22 27 34 38 37 35
0 0 0 0 0 0 0 0 0 0 0 0 0 2 7 9 9 10 13 16 21 28 36 43 47 48 48 46 49 55 61 60 53 47 43 40 35 28 24 25 30 33 31 29
0 0 0 0 0 0 0 0 1 0 0 0 2 6 10 12 12 12 13 16 20 26 35 44 50 52 52 52 53 59 65 63 55 51 48 42 36 31 29 28 30 30 29 26
0 0 0 0 0 0 0 0 0 0 0 0 4 11 15 17 17 15 15 17 19 23 31 39 46 51 52 54 58 62 68 67 61 56 52 46 40 37 35 33 31 32 32 32
0 0 0 0 0 0 0 0 0 0 0 0 5 13 21 23 23 20 17 17 18 20 26 35 42 46 49 52 56 62 68 70 65 58 52 47 44 41 38 36 34 35 37 38
0 0 0 0 0 0 0 0 0 0 1 0 4 13 21 24 23 21 19 18 19 20 24 33 41 46 49 52 54 57 63 67 65 60 53 47 44 41 39 39 40 41 42 43
0 0 0 0 0 0 0 0 0 1 2 1 3 10 17 19 18 18 19 21 24 25 28 35 46 54 56 56 56 57 59 61 62 61 57 52 48 46 44 46 48 48 47 47
0 0 0 0 0 0 0 0 0 1 2 1 3 9 15 18 17 17 19 23 29 34 36 42 53 62 63 62 63 63 62 60 60 62 61 58 54 53 53 53 53 53 50 47
0 0 0 0 0 0 0 0 0 0 0 1 5 12 19 24 24 23 24 28 34 40 46 52 60 66 68 67 68 68 66 64 63 64 66 64 60 59 59 58 57 55 51 47
0 0 1 1 0 0 0 0 0 0 0 3 8 15 24 30 30 31 32 33 38 45 53 59 65 69 70 69 70 69 67 68 68 69 70 69 65 64 65 65 64 60 55 53
0 0 2 2 1 0 0 0 0 0 1 4 9 16 25 31 34 35 35 35 39 45 53 61 67 69 69 70 70 69 69 71 73 74 72 71 70 70 71 71 70 68 65 64
0 1 2 3 3 1 0 0 0 1 2 5 10 19 28 33 33 34 35 36 39 42 47 55 62 66 67 68 70 70 70 73 75 75 73 72 72 72 72 72 73 73 71 69
1 2 2 3 4 2 1 1 1 3 5 8 14 22 28 30 30 31 35 40 41 41 43 47 54 60 63 65 67 68 68 71 73 72 72 72 72 72 73 72 71 72 69 64
1 2 2 3 4 3 3 2 2 4 9 14 18 21 24 26 26 28 34 40 41 42 43 44 48 53 58 61 62 64 65 67 68 68 68 69 70 72 73 70 68 68 65 60
1 1 1 3 3 3 3 2 2 6 14 20 21 21 23 27 30 32 36 40 41 43 44 45 47 50 54 58 60 62 63 64 63 64 64 66 69 71 71 69 67 66 62 58
0 0 0 1 2 3 4 5 9 16 22 24 23 24 28 34 37 38 39 41 43 44 45 47 49 51 53 55 59 61 63 62 61 60 60 63 66 66 66 67 68 66 61 57
0 0 0 1 3 6 11 15 21 27 27 23 22 26 32 38 39 38 38 41 42 44 45 47 49 50 50 51 54 58 61 63 62 60 58 57 59 58 59 61 62 62 57 54
1 1 2 4 7 12 18 22 25 26 23 20 20 24 29 34 36 36 38 39 40 42 43 44 45 46 46 46 48 51 56 60 61 60 56 53 51 51 52 54 55 52 48 45
1 3 6 9 13 16 18 20 20 19 19 18 18 20 25 31 35 37 38 38 39 40 41 40 39 40 41 42 42 44 49 55 57 56 53 48 45 45 48 49 46 41 36 36
1 3 9 14 16 16 16 16 16 16 17 18 18 20 25 31 35 37 37 37 37 38 38 38 36 36 37 37 37 39 44 50 53 52 49 45 42 42 44 42 36 30 27 27
1 3 9 15 17 17 16 16 14 15 17 19 20 22 26 31 35 36 36 35 36 35 36 37 36 34 35 35 34 35 40 47 51 50 47 42 40 41 41 37 29 24 22 22

GEFSCGP_con_probscp_198.txt.gz
Probability
0 0 0 0 0 0 0 0 0 0 0 0 0 1 3 5 6 5 4 4 6 12 16 19 20 20 17 14 12 11 8 5 5 6 5 3 2 1 0 0 1 2 3 5
0 0 0 0 0 0 0 0 0 0 0 0 0 1 2 5 7 6 5 4 7 13 19 22 23 22 22 19 16 13 10 7 7 8 8 6 4 3 1 0 0 1 3 5
0 0 0 0 0 0 0 0 0 0 0 0 0 0 1 4 8 8 6 5 8 15 22 25 25 25 25 24 19 15 11 10 10 10 9 8 7 5 2 0 0 1 3 5
0 0 0 0 0 0 0 0 0 0 0 0 0 0 1 4 7 8 8 8 12 20 25 26 27 27 26 25 21 16 13 12 12 10 9 8 8 6 3 1 0 0 2 3
0 0 0 0 0 0 0 0 0 0 0 0 0 0 1 4 7 8 9 12 17 25 29 29 30 29 27 27 26 22 17 14 14 11 8 7 7 6 4 1 0 1 2 2
0 0 0 0 0 0 0 0 0 0 0 0 0 0 2 5 7 8 11 15 21 28 33 33 34 33 31 33 34 30 23 19 16 14 10 9 9 8 6 4 3 3 4 4
0 0 0 0 0 0 0 0 0 0 0 0 0 2 4 7 9 10 13 17 21 26 31 33 34 35 36 38 40 37 31 25 21 17 14 13 12 11 9 7 7 7 6 5
0 0 0 0 0 0 0 0 0 0 0 0 1 5 10 13 14 13 14 16 19 21 25 29 30 32 36 41 43 42 37 31 26 21 17 16 16 14 10 8 9 9 8 8
0 0 0 0 0 0 0 0 0 0 0 1 3 7 14 17 17 15 14 17 18 18 23 28 28 30 36 42 43 43 41 36 31 26 21 18 17 15 12 9 9 10 10 10
0 0 0 0 0 0 0 0 0 0 0 1 3 8 12 15 15 15 16 18 19 20 24 29 32 34 39 43 46 45 43 39 35 30 23 18 16 14 12 11 11 12 12 12
0 0 0 0 0 0 0 0 0 0 0 1 4 7 10 12 14 16 17 18 21 23 26 31 37 41 44 47 48 47 42 38 35 31 25 20 17 13 11 11 13 14 16 17
0 0 0 0 0 0 0 0 0 0 0 1 5 8 11 14 16 18 19 19 20 24 27 32 39 46 49 50 49 47 40 36 34 33 29 25 21 17 14 13 13 16 19 20
0 0 0 0 0 0 0 0 0 0 0 2 7 11 15 17 20 22 22 20 21 24 28 34 41 47 51 51 51 48 42 38 36 34 32 29 27 25 22 20 17 17 19 19
0 0 0 0 0 0 0 0 0 0 1 2 7 13 17 19 21 24 24 24 26 28 29 34 41 45 48 50 50 49 46 43 40 36 33 32 30 28 27 25 21 18 17 17
0 0 0 0 0 1 1 1 1 1 2 4 9 13 15 18 21 23 24 28 32 33 32 35 40 44 45 46 47 47 46 45 43 39 35 34 32 31 30 28 24 20 17 16
0 0 0 0 1 2 2 2 2 1 2 7 12 15 17 19 22 23 25 29 33 34 35 38 41 42 41 41 41 41 41 43 44 44 40 38 38 38 37 35 30 25 21 21
0 0 0 1 2 3 3 3 3 4 6 11 17 20 21 21 21 22 25 28 31 34 36 38 39 38 37 37 36 36 37 38 42 44 43 44 44 44 43 42 37 30 27 28
0 0 0 1 2 3 3 3 4 8 11 16 22 26 27 23 21 22 24 25 28 31 33 34 34 33 32 34 36 37 38 38 39 39 40 43 46 46 45 43 39 34 32 32
0 0 0 1 2 3 3 4 6 10 15 18 24 29 29 27 25 25 26 25 26 27 29 30 31 30 31 34 38 39 39 38 37 34 34 38 43 45 44 43 41 39 36 35
0 0 0 1 2 2 3 4 6 10 13 17 21 25 25 26 26 25 26 26 26 26 28 28 29 30 31 33 36 37 36 34 32 30 30 33 36 38 40 41 42 43 40 37
0 0 0 0 1 1 2 4 6 8 10 12 15 18 17 18 21 22 23 25 25 26 26 25 26 27 30 31 34 34 31 28 25 26 27 28 29 31 33 35 39 42 41 37
0 0 0 0 0 0 1 3 4 5 5 7 8 11 12 13 17 20 22 23 24 24 23 21 20 22 24 27 30 30 26 22 20 21 23 23 25 26 27 30 34 39 38 35
0 0 0 1 1 0 0 1 2 3 3 3 5 8 11 13 16 20 23 24 23 22 22 19 17 17 20 22 25 25 21 17 16 17 19 21 23 23 23 27 32 35 35 33
0 0 1 3 3 2 1 0 0 1 1 3 4 7 10 13 14 18 22 24 23 22 21 20 18 18 18 19 20 19 17 15 15 16 18 21 22 21 21 24 28 30 31 30
0 1 2 4 4 4 3 1 0 1 2 5 6 7 9 12 13 15 19 22 22 21 19 18 18 18 18 18 17 17 17 16 17 18 19 20 20 19 19 19 21 23 24 24
0 1 3 4 3 3 3 2 1 2 3 6 7 7 8 11 13 14 17 20 20 19 18 16 16 16 17 18 17 17 18 18 19 19 19 19 18 18 18 17 16 17 18 17

GEFSCGP_con_probscp_204.txt.gz
Probability
0 0 0 0 0 0 0 0 0 0 0 0 0 0 0 0 0 0 0 1 0 0 0 1 1 1 0 0 0 0 0 0 0 0 0 0 0 0 0 0 0 0 0 0
0 0 0 0 0 0 0 0 0 0 0 0 0 0 0 0 0 0 1 1 1 1 1 2 2 2 1 0 0 0 0 0 0 0 0 0 0 0 0 0 0 0 0 0
0 0 0 0 0 0 0 0 0 0 0 0 0 0 0 0 0 0 1 2 2 2 2 2 3 4 3 1 0 0 0 0 0 0 0 0 0 0 0 0 0 0 0 0
0 0 0 0 0 0 0 0 0 0 0 0 0 0 0 0 0 0 0 1 3 3 2 2 5 7 6 4 2 1 1 1 0 0 0 1 1 1 1 0 0 0 0 0
0 0 0 0 0 0 0 0 0 0 0 0 0 0 1 1 1 1 1 1 2 3 2 3 7 10 10 9 6 4 3 2 1 0 1 2 3 3 2 1 1 0 0 0
0 0 0 0 0 0 0 0 0 0 0 0 0 1 2 3 3 3 2 2 3 3 2 4 10 13 15 14 12 9 6 4 2 1 1 2 3 3 3 3 2 1 1 1
0 0 0 0 0 0 0 0 0 0 0 0 1 2 3 4 5 5 3 3 5 5 4 8 15 18 19 19 16 13 10 6 2 2 2 2 2 3 3 4 3 3 3 3
0 0 0 0 0 0 0 0 0 0 0 0 2 3 3 4 5 4 3 3 5 7 7 11 18 21 21 21 19 16 14 10 6 4 3 3 2 2 3 4 3 3 4 5
0 0 0 0 0 0 0 0 0 0 0 0 2 3 4 4 5 5 5 5 5 7 8 11 17 20 20 21 22 21 19 15 12 8 5 3 3 3 3 3 3 4 5 6
0 0 0 0 0 0 0 0 0 0 0 0 3 5 5 5 7 8 9 8 7 8 9 13 18 22 22 23 25 25 23 19 17 14 10 6 5 4 3 2 2 4 5 6
0 0 0 0 0 0 0 0 0 0 0 0 3 5 5 6 9 10 11 10 10 11 12 16 23 27 27 26 27 28 26 23 20 18 15 12 8 5 3 2 2 3 4 4
0 0 0 0 0 0 0 0 0 0 0 1 3 5 7 9 10 11 12 13 13 14 16 20 25 29 29 28 29 30 28 25 22 20 19 16 12 9 6 4 4 4 4 5
0 0 0 0 0 0 0 0 0 0 1 2 4 6 10 13 13 12 14 16 15 15 18 20 21 25 27 30 33 33 30 26 24 24 23 20 16 13 10 8 8 8 9 10
0 0 0 0 1 1 1 1 1 0 1 3 4 7 12 15 15 14 17 19 19 18 19 17 16 19 24 31 35 36 32 29 29 29 27 22 18 15 14 13 12 13 15 15
0 0 0 0 1 2 1 1 2 1 2 4 7 9 11 14 15 16 18 19 21 23 22 19 16 17 23 30 36 37 34 31 31 31 29 24 18 15 16 17 18 18 17 16
0 0 0 0 1 1 1 2 3 4 3 6 9 9 9 12 15 17 17 17 18 22 23 21 19 20 24 29 34 36 33 30 28 28 28 25 19 17 18 19 20 20 18 17
0 0 0 0 0 0 0 2 5 6 7 7 9 9 11 13 15 16 16 14 14 16 19 19 19 22 25 28 30 31 31 29 26 25 24 23 20 17 18 20 20 20 20 19
0 0 0 0 0 0 0 2 5 8 9 8 9 11 14 15 15 16 17 15 13 14 15 16 17 20 24 26 26 26 27 29 27 23 21 21 20 19 18 18 17 19 20 20
0 0 0 0 0 0 0 1 4 8 8 8 11 16 17 16 17 18 18 17 15 13 13 14 16 20 23 25 24 23 25 27 25 22 21 22 23 23 20 17 17 19 19 19
0 0 0 0 0 0 0 1 3 6 6 6 10 17 18 17 18 18 17 17 15 12 11 12 16 19 21 21 22 23 26 26 24 22 23 25 26 25 22 20 20 20 20 19
0 0 0 0 0 0 0 1 2 4 3 4 7 11 12 12 13 14 14 14 13 11 9 11 14 16 18 18 20 23 24 23 22 22 24 25 24 21 19 20 21 21 20 19
0 0 0 0 0 0 0 0 1 1 2 2 3 4 4 6 9 11 11 11 10 8 7 7 10 14 16 17 18 19 18 18 18 19 21 21 19 16 15 16 18 19 19 19
0 0 0 0 0 0 0 0 0 0 1 1 1 1 1 3 6 8 9 9 7 6 6 6 9 13 14 14 15 14 12 11 12 14 14 14 14 14 13 14 14 16 18 19
0 0 0 0 0 0 0 0 0 0 0 0 0 0 0 2 4 6 7 8 7 7 8 8 10 12 12 11 11 10 8 7 8 9 9 9 10 11 12 12 12 14 16 17
0 0 0 0 0 0 0 0 1 1 0 0 0 1 1 2 3 4 6 7 7 8 10 12 12 11 11 10 9 8 6 5 6 7 6 6 7 8 9 9 8 10 13 15
0 0 0 0 0 0 0 1 2 2 1 0 1 2 2 3 3 4 5 6 7 9 11 13 12 11 10 10 10 9 6 5 5 5 5 6 6 6 7 5 5 6 9 12

GEFSCGP_con_probscp_210.txt.gz
Probability
0 0 0 0 0 0 0 0 0 0 0 0 0 0 0 0 0 0 0 1 1 1 2 3 3 3 5 7 5 2 1 1 1 0 0 0 0 0 0 0 1 2 2 2
0 0 0 0 0 0 0 0 0 0 0 0 0 0 0 0 0 0 1 2 3 2 3 4 4 5 6 7 6 4 3 2 1 0 1 1 0 0 0 0 0 1 1 1
0 0 0 0 0 0 0 0 0 0 0 0 0 0 1 1 1 1 3 4 4 4 5 6 8 9 10 9 9 8 8 7 5 3 3 2 1 0 1 1 1 1 1 0
0 0 0 0 0 0 0 0 0 0 0 0 0 0 2 3 4 4 4 5 5 5 6 7 10 13 14 13 13 13 11 10 9 8 5 3 1 1 2 2 3 2 1 1
0 0 0 0 0 0 0 0 0 0 0 0 0 0 2 5 7 6 5 5 5 6 5 7 11 14 16 16 17 16 13 11 10 8 5 4 3 3 3 4 4 4 3 3
0 0 0 0 0 0 0 0 0 0 0 0 0 0 2 7 9 7 5 5 5 5 6 8 11 15 17 19 19 18 17 16 13 9 6 6 5 5 5 5 6 6 5 4
0 0 0 0 0 0 0 0 0 0 0 0 0 1 5 9 9 7 5 6 6 6 8 12 15 18 21 22 22 23 25 24 20 16 14 12 10 8 6 6 6 7 6 5
0 0 0 0 0 0 0 0 0 0 0 0 0 3 8 10 8 6 6 7 9 10 11 15 20 22 24 25 26 30 35 34 29 25 24 22 17 11 7 7 7 8 8 7
0 0 0 0 0 0 0 0 0 0 0 0 1 4 8 10 11 9 9 11 13 13 12 16 21 25 27 29 31 36 42 43 39 32 29 26 21 15 11 11 11 11 11 12
0 0 0 0 0 0 0 0 0 0 0 0 0 3 7 12 14 15 15 19 20 17 16 17 20 23 27 31 36 40 45 47 44 38 31 26 23 20 18 17 16 16 15 15
0 0 0 0 0 0 0 0 0 0 0 0 0 3 8 13 17 20 23 27 27 24 21 22 22 24 27 33 40 45 47 47 45 40 35 30 28 25 22 21 20 19 18 17
0 0 0 0 0 1 1 0 0 0 0 0 1 4 9 15 21 25 28 29 30 29 27 25 26 28 33 38 45 50 51 48 43 40 37 35 33 28 22 20 21 22 21 20
0 0 0 0 0 1 2 1 0 0 0 0 1 3 9 17 24 27 28 27 27 30 31 30 31 34 40 43 47 50 51 47 42 39 37 36 35 30 23 21 23 26 24 21
0 0 0 0 0 1 2 2 1 2 1 1 2 5 9 16 23 25 25 24 25 30 34 35 35 38 44 48 50 50 49 47 44 41 38 36 36 34 29 27 28 30 27 22
0 0 0 0 0 0 1 1 2 3 3 2 3 7 10 15 21 23 22 24 27 30 32 34 35 39 45 50 53 52 50 48 47 43 39 38 38 39 37 35 33 33 31 27
0 0 0 0 0 0 0 0 1 2 3 3 4 8 14 18 22 23 24 26 30 31 31 31 32 35 40 44 48 50 49 48 46 43 41 40 41 42 42 40 36 35 34 33
0 0 0 0 0 0 0 0 0 1 3 5 8 13 18 22 23 24 25 27 29 30 31 30 29 30 33 37 40 43 44 43 43 42 41 41 41 41 42 41 40 38 37 38
0 0 0 0 0 0 0 0 0 1 4 9 14 17 20 21 21 22 23 23 23 25 27 27 26 26 29 32 35 38 39 39 40 40 39 38 39 40 41 40 40 39 39 40
0 0 0 0 0 0 0 0 1 2 6 13 17 18 19 19 19 20 22 20 19 22 23 24 25 26 28 31 34 34 36 36 36 36 35 36 38 40 39 37 35 35 37 37
0 0 0 0 0 0 0 1 2 3 6 12 16 18 19 20 21 24 24 22 21 22 23 24 26 26 28 32 33 32 33 34 33 33 34 35 37 37 35 33 31 30 31 30
0 0 0 0 0 0 0 1 3 5 7 11 15 19 21 22 23 26 27 25 24 23 23 25 27 28 30 32 32 31 32 33 33 34 35 35 35 33 31 29 28 26 25 25
0 0 0 0 0 1 1 2 5 8 10 11 14 18 21 23 24 24 26 26 24 22 21 23 27 30 31 30 30 31 32 34 35 36 36 34 32 30 29 28 25 24 23 24
0 0 0 0 0 1 2 2 4 7 9 9 11 14 18 22 23 23 23 24 23 21 19 20 24 27 26 26 27 29 31 34 35 34 33 32 30 28 28 27 22 21 22 22
0 0 0 1 1 1 1 2 3 4 5 5 6 8 11 15 19 20 21 21 22 21 19 18 20 20 22 24 25 27 30 33 33 32 31 31 29 27 28 26 21 19 20 20
0 0 0 0 1 1 2 2 2 3 3 3 3 4 6 9 13 17 18 20 21 19 17 16 15 16 20 24 24 25 30 33 33 31 31 30 28 26 25 23 18 15 15 15
0 0 0 0 0 1 2 2 2 4 4 3 3 3 6 8 11 14 16 18 19 16 13 12 11 14 20 23 23 25 29 33 33 31 30 28 26 25 23 19 14 10 9 10

GEFSCGP_con_probscp_216.txt.gz
Probability
0 0 0 0 0 0 0 0 0 0 0 0 0 1 2 4 6 11 18 22 23 23 25 26 24 23 28 34 34 30 26 22 17 12 8 5 4 2 1 2 4 6 6 5
0 0 0 0 0 0 0 0 0 0 0 0 0 1 3 4 7 12 18 22 24 27 31 35 33 29 32 38 39 36 31 27 20 14 9 6 4 4 3 5 8 10 9 7
0 0 0 0 0 0 0 0 0 0 0 0 0 1 3 5 8 13 17 19 22 28 37 45 43 39 40 43 43 41 40 36 28 20 12 7 7 7 7 7 11 14 12 9
0 0 0 0 0 0 0 0 0 0 0 0 0 0 2 5 9 13 16 17 19 25 37 45 46 43 42 42 42 45 49 46 39 29 19 13 11 10 9 8 11 16 16 13
0 0 0 0 0 0 0 0 1 0 0 0 0 0 1 5 9 11 14 16 18 24 33 41 44 43 41 40 41 48 55 54 47 38 29 22 15 12 12 11 13 18 20 19
0 0 0 0 0 0 0 0 0 0 0 0 0 0 2 6 10 11 13 16 20 25 32 38 44 45 42 41 44 52 58 57 51 43 37 31 23 18 18 18 19 21 23 24
0 0 0 0 0 0 0 0 0 0 0 0 0 1 5 9 10 11 12 15 20 27 33 41 48 51 48 45 49 57 62 60 55 48 43 38 33 27 25 25 24 22 22 22
0 0 0 0 0 0 0 0 0 0 0 0 0 3 8 11 10 9 11 14 20 27 35 44 51 54 53 52 55 63 68 66 59 52 47 43 39 32 28 27 25 22 20 20
0 0 0 0 0 0 0 0 0 0 0 0 0 4 10 13 12 12 14 17 23 29 36 45 50 52 55 59 62 68 73 71 64 56 51 46 41 35 30 28 26 23 22 22
0 0 0 0 0 0 0 0 0 0 0 0 0 4 11 15 15 16 18 21 27 31 36 42 47 49 53 60 65 70 75 74 67 61 55 51 48 43 36 30 28 26 27 28
0 0 0 0 0 0 0 1 1 1 0 0 1 4 9 15 17 18 21 25 28 33 36 41 46 49 53 59 65 71 75 74 68 64 61 57 56 52 43 37 35 35 36 35
0 0 0 0 0 0 0 1 1 1 1 0 1 4 9 14 18 21 26 30 32 33 36 41 47 52 54 58 64 71 73 70 67 65 65 62 60 56 50 46 48 48 47 47
0 0 0 0 0 0 0 1 1 0 0 0 1 3 9 16 22 26 31 34 36 37 39 42 48 53 58 61 65 68 68 66 64 64 64 64 62 59 56 54 55 56 54 53
0 0 0 0 0 0 0 0 0 0 0 0 1 3 9 18 25 29 30 33 38 42 46 48 52 56 61 65 65 65 64 63 63 63 63 63 60 57 57 57 56 55 53 51
0 0 0 0 0 0 0 0 0 0 0 0 1 3 10 19 26 27 28 32 38 44 50 53 56 60 64 67 66 64 63 62 63 63 63 60 54 51 53 55 53 51 50 49
0 0 0 0 0 0 0 0 0 0 0 0 1 4 11 20 25 26 27 32 38 42 47 51 54 58 63 66 65 63 60 59 59 60 59 57 52 50 50 50 49 48 49 51
0 0 0 0 0 0 0 0 0 0 0 1 2 7 13 21 25 25 27 31 35 38 42 45 46 51 58 61 59 57 56 55 55 55 55 54 53 52 49 45 44 46 48 51
0 0 0 0 0 0 0 0 0 0 1 4 7 12 16 22 25 25 27 30 32 35 38 39 41 46 52 53 51 50 52 52 51 51 51 52 51 51 49 44 42 44 47 48
0 0 0 0 0 0 0 0 0 1 3 9 15 18 20 22 24 26 30 33 33 33 34 36 38 43 47 48 46 45 47 47 45 45 47 48 48 48 49 46 43 42 43 45
0 0 0 0 0 1 1 0 0 1 6 15 22 25 25 25 28 33 37 39 37 36 36 36 37 39 43 45 45 45 44 43 41 42 43 45 46 47 48 46 42 39 39 40
0 0 0 0 0 1 2 2 3 6 12 19 24 27 28 31 37 41 41 40 39 38 38 38 38 38 40 42 44 45 44 42 41 41 42 43 43 43 43 43 39 37 36 35
0 0 1 1 1 2 5 6 8 12 15 19 23 25 29 34 39 40 37 36 37 37 37 36 37 37 38 41 42 42 43 42 39 39 41 42 41 38 38 39 37 36 35 32
0 0 1 2 3 5 8 10 11 12 14 16 18 22 25 29 31 32 31 32 33 33 32 31 33 35 36 38 39 41 44 43 38 38 41 42 40 38 38 36 32 31 31 29
0 0 1 3 5 6 7 8 9 9 11 12 14 16 19 22 24 27 29 30 31 31 30 28 29 31 32 34 36 40 45 44 39 38 40 40 38 39 39 34 26 24 25 25
0 0 1 3 5 6 6 6 6 8 10 11 12 13 15 19 23 26 29 30 31 32 31 29 29 30 31 33 35 38 43 43 39 38 37 34 31 32 33 28 20 18 18 17
0 0 1 3 5 6 7 6 5 7 10 10 11 13 13 17 23 27 29 31 33 34 32 30 31 32 33 34 35 38 41 41 39 36 34 29 26 27 27 21 14 12 12 10

GEFSCGP_con_probscp_222.txt.gz
Probability
0 0 0 0 0 0 0 0 0 0 0 0 1 3 6 9 10 10 14 18 16 14 16 20 22 20 18 16 12 8 5 3 2 2 1 0 0 0 0 0 0 0 0 0
0 0 0 0 0 0 0 0 0 0 0 0 1 3 7 10 9 9 14 19 18 16 18 22 23 23 21 20 15 10 6 3 1 1 0 0 0 0 0 0 0 0 0 0
0 0 0 0 0 0 0 0 0 0 0 0 0 2 6 9 9 9 14 18 18 17 19 23 25 27 27 25 21 15 10 7 3 1 0 0 0 0 0 0 0 0 0 0
0 0 0 0 0 0 0 0 0 0 0 0 0 2 4 8 9 11 14 16 16 17 21 24 26 30 31 29 26 21 18 15 10 5 2 0 0 0 0 0 0 0 0 0
0 0 0 0 0 0 0 0 0 0 0 0 0 1 3 7 10 11 13 14 15 18 22 25 28 31 31 29 28 27 25 22 17 12 8 4 1 0 0 0 0 0 0 0
0 0 0 0 0 0 0 0 0 0 0 0 0 0 2 6 8 8 10 13 16 20 23 24 27 30 31 30 30 31 30 27 23 19 15 10 4 1 0 0 0 0 1 1
0 0 0 0 0 0 0 0 0 0 0 0 0 0 2 4 5 6 8 11 15 21 24 24 24 27 30 33 34 35 34 31 27 23 19 15 10 5 3 2 2 2 2 2
0 0 0 0 0 0 0 0 0 0 0 0 0 0 1 3 6 8 8 11 16 22 27 27 24 24 28 34 39 41 38 34 30 26 21 17 14 11 7 6 6 5 4 4
0 0 0 0 0 0 0 0 0 0 0 0 0 0 2 5 8 9 11 13 17 22 27 28 24 23 27 34 40 44 43 40 36 31 25 20 17 15 13 11 10 9 8 8
0 0 0 0 0 0 0 0 0 0 0 0 0 0 2 5 8 10 13 16 18 22 25 25 23 24 30 36 42 46 47 45 41 35 29 24 20 18 16 16 15 13 13 13
0 0 0 0 0 0 0 0 0 0 0 0 0 0 2 6 9 12 15 18 20 24 24 22 23 27 34 41 47 49 49 48 45 40 34 29 25 22 20 20 19 17 16 16
0 0 0 0 0 0 0 0 0 0 0 0 0 1 4 9 13 15 18 20 22 26 26 25 28 32 38 44 49 51 52 52 51 48 43 37 33 29 27 25 21 17 16 16
0 0 0 0 0 0 0 0 0 0 0 0 1 3 7 13 16 19 23 24 25 27 29 30 34 38 42 45 47 49 52 54 56 54 48 42 40 39 36 31 24 19 17 16
0 0 0 0 0 0 0 0 0 0 0 0 1 4 9 14 18 23 27 29 28 29 30 33 36 39 41 42 43 44 48 52 54 52 48 44 43 43 41 36 30 25 21 20
0 0 0 0 0 0 0 0 0 0 0 1 2 5 10 14 17 23 28 30 29 29 30 32 33 33 34 34 36 41 45 48 51 51 49 44 41 40 40 38 34 30 27 26
0 0 0 0 0 0 0 0 0 1 1 2 4 7 11 16 19 23 27 28 26 26 27 28 27 27 27 29 33 38 42 44 47 48 46 40 37 37 39 39 37 33 30 30
0 0 0 0 0 0 0 0 0 2 4 5 7 11 16 20 23 24 26 25 23 21 22 24 25 25 26 29 33 34 35 38 40 41 39 35 33 34 37 39 37 32 29 29
0 0 0 0 0 0 0 0 0 2 6 8 11 16 20 23 25 27 25 22 19 17 17 20 23 25 27 29 31 32 32 33 35 35 34 31 29 30 32 33 31 28 25 24
0 0 0 0 0 0 0 0 0 2 5 9 12 18 22 24 27 28 26 22 19 17 16 18 20 22 25 28 31 32 32 31 32 32 30 28 26 25 26 26 25 22 20 20
0 0 0 0 0 0 0 1 1 2 3 7 12 18 22 25 26 26 24 22 20 19 20 21 21 21 22 26 29 30 29 29 30 30 27 25 25 23 22 21 20 18 17 17
0 0 0 0 0 0 0 1 3 3 4 7 11 16 21 23 22 21 20 20 20 21 23 23 22 22 23 24 26 27 28 29 31 31 28 25 23 22 20 17 16 16 16 16
0 0 0 0 0 0 0 2 4 4 4 7 9 13 17 19 18 16 16 17 19 21 21 21 21 22 24 25 26 27 28 28 30 31 29 24 20 18 15 14 14 13 14 14
0 0 0 0 0 0 0 1 3 4 4 5 7 9 12 14 13 13 15 16 17 18 18 18 18 20 21 22 23 24 23 22 23 25 25 20 16 13 12 12 13 12 12 13
0 0 0 0 0 0 0 1 2 3 3 4 5 8 10 11 11 12 14 15 15 14 15 16 16 16 15 16 19 18 16 14 15 17 18 17 15 13 12 12 12 11 10 11
0 0 0 0 0 0 0 1 2 3 3 3 4 6 8 9 8 9 10 13 14 14 15 15 14 14 13 13 13 12 10 10 11 12 14 16 15 13 11 10 10 9 8 8
0 0 0 0 0 0 0 1 2 3 2 1 2 5 7 7 6 5 6 9 13 15 15 15 14 13 12 11 9 7 6 7 8 10 12 15 15 12 9 9 8 7 6 7

GEFSCGP_con_probscp_228.txt.gz
Probability
0 0 0 0 0 0 0 0 0 1 1 1 1 1 0 1 2 4 5 6 6 6 4 3 3 4 5 4 3 2 2 1 0 0 0 0 0 0 0 0 0 0 0 0
0 0 0 0 0 0 0 0 0 0 0 1 1 1 1 1 3 3 3 4 6 6 4 4 4 5 6 7 6 4 3 3 1 1 0 0 0 0 0 0 0 0 0 0
0 0 0 0 0 0 0 0 0 0 0 0 1 1 1 2 2 2 2 3 5 5 3 4 6 7 8 9 8 6 5 5 3 2 1 0 0 0 0 0 0 0 0 0
0 0 0 0 0 0 0 0 0 0 0 0 0 0 1 2 1 1 0 2 5 5 3 3 6 8 9 9 8 6 5 5 4 4 3 1 1 1 1 1 1 1 1 1
0 0 0 0 0 0 0 0 0 0 0 0 0 0 1 1 1 0 0 1 4 5 4 3 5 7 9 9 7 6 5 5 5 5 5 4 3 3 3 3 3 2 2 2
0 0 0 0 0 0 0 0 0 0 0 0 0 0 0 0 0 1 1 1 2 5 6 5 5 7 8 9 9 8 7 6 7 7 7 7 6 6 6 5 4 4 4 4
0 0 0 0 0 0 0 0 0 0 0 0 0 0 0 1 2 3 2 1 1 4 7 7 7 8 9 10 11 10 8 8 9 10 10 10 10 10 9 7 6 6 6 6
0 0 0 0 0 0 0 0 0 0 0 0 0 1 1 2 4 5 4 2 1 3 6 8 10 13 15 15 15 14 12 10 12 13 13 13 14 14 13 11 10 8 7 7
0 0 0 0 0 0 0 0 0 0 0 0 1 2 3 4 4 5 4 3 3 4 6 10 15 19 21 21 20 19 18 17 17 18 17 16 17 18 16 15 13 11 10 9
0 0 0 0 0 0 0 0 0 0 0 0 1 2 3 4 4 4 4 4 4 5 8 12 18 22 23 22 23 24 26 27 26 25 22 19 19 20 20 18 17 15 12 11
0 0 0 0 0 0 0 0 0 0 0 0 1 1 2 3 5 6 6 6 6 6 9 15 21 24 24 24 25 28 31 33 33 30 26 22 21 22 22 21 19 17 14 12
0 0 0 0 0 0 0 0 0 0 0 0 0 1 2 5 8 10 9 8 8 9 12 18 24 26 25 25 27 29 31 33 34 32 28 26 24 23 23 22 21 20 17 14
0 0 0 0 0 0 0 0 0 0 0 0 0 1 5 11 13 13 13 12 12 14 17 21 24 25 25 26 28 27 27 29 31 30 28 27 26 24 21 21 21 20 18 16
0 0 0 0 0 0 0 0 0 0 0 0 1 3 8 13 15 14 14 14 14 16 17 19 19 19 22 26 28 26 25 26 27 27 25 24 25 23 20 18 18 17 16 15
0 0 0 0 0 0 0 0 1 1 1 1 2 5 9 14 15 13 13 15 16 16 15 15 15 16 19 24 26 25 25 25 26 26 26 26 26 24 19 15 15 14 14 15
0 0 0 0 0 0 0 0 2 3 3 4 5 7 11 15 15 13 14 16 17 17 16 15 14 15 18 21 23 24 24 26 28 29 30 30 30 27 21 18 18 19 19 20
0 0 0 0 0 0 0 0 2 4 5 6 7 9 12 15 15 16 17 17 18 18 18 17 15 16 16 18 20 21 24 27 28 29 29 29 29 28 25 23 24 24 24 25
0 0 0 0 0 0 0 1 2 4 4 5 7 10 13 15 16 18 19 18 18 18 18 18 16 15 14 15 17 19 23 25 25 25 24 24 26 26 26 27 26 24 24 25
0 0 0 0 0 0 0 1 2 2 2 3 6 10 13 15 17 19 19 19 18 17 16 16 16 15 15 16 16 18 20 21 23 24 23 22 23 24 25 26 25 23 23 23
0 0 0 0 0 0 0 0 1 1 1 1 3 8 12 15 16 17 18 18 17 15 13 12 13 14 15 15 16 16 17 17 20 24 24 23 23 24 25 25 23 22 22 22
0 0 0 0 0 0 0 0 0 0 0 0 1 3 8 11 13 13 13 15 15 13 11 11 12 12 12 13 13 14 14 16 18 21 23 23 23 24 24 23 21 20 20 19
0 0 0 0 0 0 0 0 0 0 0 0 0 1 4 6 8 10 11 11 12 11 10 10 11 10 10 11 12 12 12 14 16 18 21 22 22 21 20 19 18 17 16 16
0 0 0 0 0 0 0 0 0 0 0 0 0 0 1 2 5 7 9 9 10 9 8 8 8 8 8 9 11 11 11 13 15 17 19 21 21 17 14 14 14 13 13 12
0 0 0 0 0 0 0 0 0 0 0 0 0 0 1 1 2 4 6 7 7 6 6 7 8 7 6 6 8 10 11 13 15 16 17 19 18 15 11 10 10 10 9 9
0 0 0 0 0 0 0 0 0 0 0 0 0 1 1 1 1 1 2 3 4 4 5 7 8 7 6 6 7 10 11 12 13 13 14 14 14 12 10 8 7 7 7 6
0 0 0 0 0 0 0 0 0 0 0 0 0 1 1 1 0 0 1 2 3 3 4 6 7 7 7 6 8 9 10 10 11 11 11 12 12 12 10 8 6 5 5 5

GEFSCGP_con_probscp_234.txt.gz
Probability
0 0 0 0 0 0 0 0 0 1 1 0 0 1 2 3 3 2 1 2 3 5 6 7 6 5 4 6 7 8 9 9 6 4 2 1 0 0 0 0 0 0 0 0
0 0 0 0 0 0 0 0 0 1 2 1 0 0 2 3 3 3 2 3 4 5 6 7 8 8 7 7 7 7 9 10 8 4 2 1 0 0 0 0 0 1 1 1
0 0 0 0 0 0 0 0 0 1 2 2 1 1 1 2 3 3 3 3 4 5 6 9 11 13 12 10 8 7 8 10 9 5 2 1 0 0 0 0 1 2 2 2
0 0 0 0 0 0 0 0 0 0 1 2 2 1 1 1 3 3 2 4 5 6 7 11 14 17 17 15 11 8 8 10 9 7 4 2 1 0 1 1 2 3 3 3
0 0 0 0 0 0 0 0 0 0 1 1 1 0 0 1 2 2 3 4 6 6 8 11 14 18 19 17 14 11 12 12 11 9 7 5 4 3 4 4 4 4 4 4
0 0 0 0 0 0 0 0 0 0 0 0 0 0 0 0 1 1 3 5 6 6 7 10 13 18 21 19 17 16 17 17 15 13 10 8 9 10 11 10 8 6 6 6
0 0 0 0 0 0 0 0 0 0 0 0 0 0 0 0 1 1 3 5 6 5 7 9 13 19 24 24 21 21 22 22 21 19 16 15 15 17 17 14 11 8 7 7
0 0 0 0 0 0 0 0 0 0 0 0 0 0 0 0 1 2 4 4 4 4 6 9 13 19 24 25 24 25 25 26 26 25 25 23 21 20 19 17 13 10 8 8
0 0 0 0 0 0 0 0 0 0 0 0 0 0 0 0 1 2 3 4 4 4 6 8 12 16 20 23 25 27 30 31 31 31 30 28 25 21 20 19 15 11 11 11
0 0 0 0 0 0 0 0 0 0 0 0 0 0 0 0 0 1 4 7 8 7 7 8 10 13 17 21 25 29 33 37 37 35 32 29 27 24 21 20 19 16 15 16
0 0 0 0 0 0 0 0 0 0 0 0 0 1 1 1 1 3 6 10 11 11 10 10 11 13 15 20 26 29 33 39 41 40 36 34 33 30 27 26 26 24 23 23
0 0 0 0 0 0 0 0 0 0 0 0 0 1 1 2 4 6 9 12 12 12 12 13 15 16 18 22 26 29 33 39 42 43 43 43 41 37 34 34 33 31 30 32
0 0 0 0 0 0 0 0 0 0 0 0 0 0 1 3 7 10 13 15 15 13 14 17 21 24 25 27 30 31 34 39 41 43 46 47 44 40 38 37 35 34 36 38
0 0 0 0 0 0 0 0 0 0 0 0 0 0 1 5 9 14 17 19 18 17 19 24 28 30 32 35 37 36 37 40 40 40 42 43 41 38 37 35 32 33 37 40
0 0 0 0 0 0 0 0 0 0 0 0 0 1 3 6 11 16 19 22 22 22 25 31 34 36 38 41 42 40 40 42 42 41 41 39 36 35 34 33 31 31 35 37
0 0 0 0 0 0 0 0 0 0 0 0 1 2 4 8 12 17 21 24 26 27 29 33 37 40 43 44 44 43 43 43 45 46 46 42 36 33 32 31 30 30 32 34
0 0 0 0 0 0 0 0 0 0 0 0 1 3 6 10 13 17 21 26 30 31 30 31 35 39 42 43 42 42 43 44 46 48 46 41 35 32 31 30 29 30 31 33
0 0 0 0 0 0 0 0 0 0 0 0 1 3 6 10 13 17 22 27 30 31 30 30 32 36 37 37 37 38 41 43 45 45 42 37 35 34 32 32 32 32 33 36
0 0 0 0 0 0 0 1 1 1 0 1 2 3 7 11 14 18 22 27 30 32 32 32 33 34 35 35 34 34 35 38 40 40 39 38 38 38 35 34 35 36 37 39
0 0 0 0 0 0 0 1 2 1 1 2 3 5 9 13 16 18 20 24 30 34 37 37 35 34 34 33 32 31 31 32 33 34 36 36 38 39 36 34 35 37 39 40
0 0 0 0 0 0 0 1 1 0 1 2 4 7 11 15 17 16 16 19 26 33 36 37 36 33 30 28 28 27 26 25 25 28 31 32 34 36 35 35 35 37 39 40
0 0 0 0 0 0 0 0 0 0 1 3 6 10 13 16 16 13 12 14 20 25 29 32 34 32 27 24 23 23 21 20 21 24 28 31 32 32 33 36 37 37 37 36
0 0 0 0 0 1 0 0 1 1 2 4 7 10 13 15 14 12 11 12 15 19 22 24 28 31 28 24 22 21 20 19 19 21 27 31 31 29 31 34 35 34 33 31
0 0 0 0 0 0 0 0 0 0 1 3 6 8 10 12 12 11 11 12 13 15 16 18 21 26 27 24 22 21 22 21 20 20 23 26 27 27 27 29 28 28 27 26
0 0 0 0 0 0 0 0 0 0 0 2 4 7 8 9 9 10 11 12 13 13 13 14 16 19 22 22 21 21 23 23 22 20 19 21 23 23 22 21 20 19 19 18
0 0 0 0 0 0 0 0 0 0 0 1 4 6 7 8 8 9 10 13 14 13 11 11 12 14 18 19 18 20 23 24 23 20 18 19 20 19 17 17 15 12 11 11